Location: Estes Park
(40.3770°N, 105.5210°W)
Time: 18:46:50
(UTC-07:00)

Vanguard 3 - Visible Passes

Search period start: 19 February 2018 00:00
Search period end: 01 March 2018 00:00
Orbit: 508 x 3264 km, 33.3° (Epoch: 19 February)

Date Brightness Start Highest point End Pass type
(mag) Time Alt. Az. Time Alt. Az. Time Alt. Az.
19 Feb 7.9 18:41:41 10° WSW 18:44:50 27° S 18:48:20 11° SE visible
20 Feb 8.5 19:39:51 10° WSW 19:42:37 18° SSW 19:43:26 18° S visible
21 Feb 8.1 18:26:24 10° WSW 18:29:22 23° S 18:32:38 10° SE visible
22 Feb 8.8 19:25:03 10° SW 19:27:06 14° SSW 19:29:08 11° SSE visible
23 Feb 8.4 18:11:05 10° WSW 18:13:53 20° SSW 18:16:44 10° SE visible
24 Feb 9.0 19:11:01 10° SSW 19:11:32 10° SSW 19:12:03 10° SSW visible
